Regional Weather Roundup
Issued by NWS Grand Forks, ND

Home | Current Version | Previous Version | Graphics & Text | Print | Product List | Glossary On
Versions: 1 2 3 4 5 6 7 8 9 10 11 12 13 14 15 16 17 18 19 20 21 22 23 24 25 26 27 28 29 30 31 32 33 34 35 36 37 38 39 40 41 42 43 44 45 46 47 48 49 50
000
ASUS43 KFGF 310931
RWRFGF
PRAIRIE TO PINES  WEATHER ROUNDUP
NATIONAL WEATHER SERVICE EASTERN NORTH DAKOTA/GRAND FORKS ND
400 AM CDT FRI JUL 31 2015

 **SATELLITE DATA USED TO AUGMENT SKY COVER AT AUTOMATED STATIONS**
 *****  WEATHER ACROSS EASTERN NORTH DAKOTA  *****

CITY           SKY/WX    TMP DP  RH WIND       PRES   REMARKS
GRAND FORKS    CLEAR     58  52  80 W7        30.02S
GRAND FRKS AFB CLEAR     60  52  76 W8        30.04R
GRAND FRKS NWS   N/A     57 N/A N/A W5          N/A
DEVILS LAKE    CLEAR     59  48  67 W10       30.08R
FARGO          CLEAR     58  52  80 W8        30.06R
WAHPETON ARPT  MOSUNNY   54  50  87 W6        30.09S
$$

 ***** WEATHER ACROSS CENTRAL AND WESTERN NORTH DAKOTA  *****

CITY           SKY/WX    TMP DP  RH WIND       PRES   REMARKS
BISMARCK       CLEAR     55  51  86 CALM      30.18R
MINOT          CLEAR     56  47  71 SW7       30.13R
JAMESTOWN      PTCLDY    57  50  77 W7        30.13R
MINOT AFB      CLEAR     51  51  99 W9        30.12R
GARRISON         N/A     58  53  84 W3        30.16S
WILLISTON      CLEAR     55  49  80 SW7       30.16F
DICKINSON      CLEAR     50  45  83 S9        30.19S
HETTINGER      CLEAR     48  45  89 W3        30.22S
$$

 *****  OTHER AIRPORT OBSERVATIONS IN OUR AREA  *****

CITY           SKY/WX    TMP DP  RH WIND       PRES   REMARKS
WALHALLA       FAIR      59  50  72 MISG      30.02S
GRAFTON AIRPOR FAIR      61  54  77 W12       30.03R
VALLEY CITY AR FAIR      57  54  88 W13       30.11S
CANDO          FAIR      50  50 100 W9        30.09S
CAVALIER APRT  FAIR      57  50  77 W8        30.01F
GWINNER        FAIR      61  52  72 W8        30.12S
SHEYENNE NWR     N/A     55  51  87 W5        29.95S
ROLLA          FAIR      54  50  87 W8        30.10S
 ***** THE ABOVE OBSERVATIONS ARE NON NWS ARE NOT QUALITY
       CONTROLLED AND MAY MIS-REPORT RAIN FOR SNOW...
$$

  *****  WEATHER ACROSS NORTHERN MINNESOTA  *****

CITY           SKY/WX    TMP DP  RH WIND       PRES   REMARKS
FLAG ISLAND    CLEAR     61  55  82 W12       29.92S
WARROAD        CLEAR     55  52  88 W7        29.97R
ROSEAU         CLEAR     57  52  82 W6        29.97R
HALLOCK        CLEAR     54  52  94 W7        30.00R
THF RVR FALLS  CLEAR     55  50  82 W7        30.02R
BAUDETTE       CLEAR     57  52  83 W8        29.93R
WASKISH        CLEAR     63  55  77 W10G20    29.96R
CROOKSTON      CLEAR     55  52  88 W6        30.04R
$$
  *****  WEATHER ACROSS CENTRAL AND WEST MINNESOTA  *****

CITY           SKY/WX    TMP DP  RH WIND       PRES   REMARKS
FOSSTON        CLEAR     55  50  82 W8        30.04R
BEMIDJI        CLEAR     58  49  73 W8        30.00S
PARK RAPIDS    CLEAR     57  50  77 W8        30.03S
ELBOW LAKE     FAIR      56  54  92 W6        30.09R
WADENA         CLEAR     55  50  82 W6        30.05S
DETROIT LAKES  CLEAR     63  50  63 W9        30.07R
MOORHEAD       CLEAR     55  54  94 SW7       30.07S
FERGUS FALLS   CLEAR     55  55 100 W3        30.09R
MORRIS MN      CLEAR     57  55  94 W6        30.09S
STAPLES        CLEAR     55  50  82 W9        30.04S
$$
  *****  WEATHER ELSEWHERE ACROSS MINNESOTA  *****

CITY           SKY/WX    TMP DP  RH WIND       PRES   REMARKS
DULUTH         PTCLDY    64  53  67 W13       29.93S
INTRNTL FALLS  CLEAR     57  55  93 W7        29.91S
ELY            CLEAR     55  54  94 W5        29.90S
CLOQUET        CLEAR     63  52  67 W9        29.95S
WHEATON        CLEAR     55  54  94 SW6       30.12S
BRAINERD       CLEAR     63  52  67 W9        30.02S
HIBBING        CLEAR     60  53  77 W6        29.94R
ALEXANDRIA     CLEAR     59  55  87 W5        30.09S
SAINT CLOUD    CLEAR     63  54  72 W7        30.04S
MINNEAPOLIS    CLEAR     69  56  62 NW12      30.03R
$$

  *****  WEATHER ACROSS SOUTH DAKOTA  *****

CITY           SKY/WX    TMP DP  RH WIND       PRES   REMARKS
SIOUX FALLS    CLEAR     61  58  90 CALM      30.13F
BROOKINGS      CLEAR     61  55  82 CALM      30.16S
WATERTOWN      CLEAR     60  53  77 N3        30.14S
HURON          CLEAR     61  59  93 CALM      30.12S
SISSETON         N/A     59  52  77 W5        30.10S
ABERDEEN       CLEAR     55  51  86 SW3       30.14S
MITCHELL       CLEAR     65  60  84 CALM      30.13F
PIERRE         CLEAR     60  53  77 CALM      30.14S
MOBRIDGE       CLEAR     56  53  90 N3        30.15S
RAPID CITY     CLEAR     59  49  69 CALM      30.23S
$$

  *****  SOME WEATHER IN NEARBY STATES *****

CITY           SKY/WX    TMP DP  RH WIND       PRES   REMARKS
GLASGOW MT     CLEAR     61  50  67 E12       30.16S
GREAT FALLS MT CLEAR     59  42  53 SW10      30.18S
CHEYENNE WY    CLEAR     57  51  80 NW5       30.38F
SCOTTSBLUFF NE CLEAR     62  58  86 N3        30.27S
OMAHA NE       MOCLDY    70  66  87 N10G18    30.17R THUNDER
DES MOINES IA  PTCLDY    71  64  78 W5        30.10F
DAVENPORT IA   CLEAR     66  63  90 W5        30.08F
CHICAGO IL     CLEAR     69  58  67 W6        30.02F
EAU CLAIRE WI  CLEAR     62  57  83 W8        29.97F
LA CROSSE WI   CLEAR     67  61  81 S5        30.00F
$$

  *****  SOME NATIONAL WEATHER *****

CITY           SKY/WX    TMP DP  RH WIND       PRES   REMARKS
LA GUARDIA NY  PTCLDY    75  63  66 NW8       29.84R
RALEIGH NC     PTCLDY    76  64  66 CALM      29.93R
ATLANTA GA     CLEAR     74  66  76 NW6       29.95S
NEW ORLEANS LA CLOUDY    80  72  76 N9        29.93F
OKLAHOMA CITY  MOCLDY    76  73  91 SE5       30.13S
ALBUQUERQUE NM CLOUDY    69  61  75 N8        30.34F
SALT LAKE CITY PTCLDY    66  37  34 S6        30.21F
LOS ANGELES CA PTCLDY    69  66  90 SW6       30.01F
BOISE ID       PTCLDY    70  37  29 E7        30.11F
SEATTLE WA     CLEAR     73  49  42 N7        30.06R
$$

*** WEATHER ACROSS MANITOBA...SASKATCHEWAN AND ONTARIO ***
                ***ONTARIO***

CITY           SKY/WX    TMP DP  RH WIND       PRES   REMARKS
GERALDTON      MOCLDY    57  57 100 W6        29.71R
THUNDER BAY    PTCLDY    57  55  94 W12       29.80R
SIOUX LOOKOUT  MOCLDY    59  55  88 NW8       29.82S
TORONTO        CLEAR     64  54  68 NW6       29.88S
BIG TROUT LK   MOCLDY    55  50  82 NW16      29.62F
PICKLE LAKE    NOT AVBL
DRYDEN         CLEAR     55  54  94 W10       29.86R
KENORA         PTCLDY    57  55  94 NW7       29.91R
$$
                *** MANITOBA***

CITY           SKY/WX    TMP DP  RH WIND       PRES   REMARKS
BRANDON        CLEAR     50  48  93 W7        30.05S
DAUPHIN        CLEAR     55  52  88 W10       30.00R
ISLAND LAKE    PTCLDY    61  55  82 NW5       29.77S
PILOT MOUND      N/A     57  50  77 W7          N/A
THE PAS        PTCLDY    57  55  94 W7        29.94S
THOMPSON       PTCLDY    52  50  93 W7        29.81R
WINNIPEG       CLEAR     55  54  94 W10       29.96S
LYNN LAKE      MOCLDY    55  54  94 W8        29.87S
CHURCHILL      CLOUDY    54  50  87 N15       29.66F
GILLAM         PTCLDY    59  54  82 NW16      29.71R
$$
                ***SASKATCHEWAN***

CITY           SKY/WX    TMP DP  RH WIND       PRES   REMARKS
ESTEVAN        CLEAR     50  48  93 SW5       30.15S
KINDERSLEY     PTCLDY    48  46  93 S5        30.18S
LLOYDMINSTER   PTCLDY    52  45  76 SW7       30.14S
PRINCE ALBERT  CLEAR     52  48  87 W5        30.08S
REGINA         CLEAR     50  50 100 W7        30.15R
YORKTON        CLEAR     55  50  82 W12       30.07R
N. BATTLEFORD  CLEAR     46  45  93 CALM      30.16S
LA RONGE       CLEAR     54  50  87 W6        30.03
SASKATOON      PTCLDY    48  46  93 W8        30.15R
SWIFT CURRENT  CLEAR     59  48  67 E3        30.19R
$$
NOTE: THESE ARE AUTOMATED STATIONS WITH LIMITED QUALITY CONTROL
      "FAIR" INDICATES FEW OR NO CLOUDS BELOW 12,000 FEET WITH NO
      SIGNIFICANT WEATHER AND/OR OBSTRUCTIONS TO VISIBILITY.
      SKY/WX - SKY CONDITION AND SIGNIFICANT WEATHER.
      TMP - AIR TEMPERATURE.    DP   - DEWPOINT TEMPERATURE.
      RH  - RELATIVE HUMIDITY.  PRES - PRESSURE.
      HX  - HEAT INDEX.         WCI  - WIND CHILL INDEX.
$


USA.gov is the U.S. government's official web portal to all federal, state and local government web resources and services.